User: anonymous   Login
Location: Goll?ig?dem
(16.6773°N, 80.7332°E)
Time: 09:26:14
(UTC+00:00)
Language:

Delta 198 - Orbit

View from above orbital plane
View from above orbital plane
View from above satellite
View from above satellite

Ground track
Ground track

The orbit data is extracted from the following two-line orbital elements,

1 20763U 90074B   21164.65768007  .00001046  00000-0  72373-4 0  9998
2 20763  24.7631 254.8340 0393098 243.1884 112.7901 14.46292321611521
Epoch (UTC): 13 June 2021 15:47:03
Eccentricity: 0.0393098
inclination: 24.7631°
perigee height: 458 km
apogee height: 1017 km
right ascension of ascending node: 254.8340°
argument of perigee: 243.1884°
revolutions per day: 14.46292321
mean anomaly at epoch: 112.7901°
orbit number at epoch: 61152

The dashed part of the orbit path shows where the satellite is in the earth's shadow,  

DLR